Showing default

SPACEMOBILE-005, 61046

Orbit data source: Space-Track

SPACEMOBILE-005, 61046 is a payload satellite owned by AST & Science (US) in LEO that was launched on Thu, 12 Sep 2024 UTC via an FALCON 9 launch vehicle from the Air Force Eastern Test Range (AFETR). Payload-class satellites include a variety of spacecraft equipped with specific instruments for various scientific and technological missions. These include communications satellites like Starlink; space stations such as the ISS; scientific satellites like the Hubble; Earth observation satellites from companies like Planet Labs, Umbra, and HawkEye 360; GPS; miniature CubeSats for education and research; and military/defense satellites.

Loading next visibility...
Identifier
61046, 2024-163B
Orbit
LEO
Country
Flag of USUS
Related business
Manufacturer
AST & Science
Mission
Operational Commercial Communications
Bus & Motor
BW3, Unknown motor
Mass
1,500 kg wet, 1,500 kg dry
Launch date (UTC)
2024-09-12 (1 year ago)
Launch vehicle
FALCON 9
Launch site
Air Force Eastern Test Range (AFETR)
Object type
Payload
Rocket body
Debris
Shape & HBR
Box + 1 Plate, 6.5 m
Radar Cross Section
32.590 m², Large (>1 m²)

Expand to show TLE details & history
Last TLE update: 10 hours ago

TLE from 10 hours ago
0 SPACEMOBILE-005
1 61046U 24163B   25299.40856830  .00004327  00000-0  20746-3 0  9992
2 61046  52.9698 304.6958 0011497 138.8259 221.3604 15.20915245 62180
Epoch: 2025-10-26T09:48Z
TLE epoch observation values (Epoch: 2025-10-26T09:48:20.301Z)
Latitude
-0.00005°
Longitude
122.58599°
Altitude
509.896 km
Speed
7.607 km/s
True Right ascension
20h 18m 46s
True Declination
0° 00' 00"
Sunlit
Object was in daylight at epoch
Visualization orbit readout
Latitude
Unknown
Longitude
Unknown
Altitude
Unknown
Speed
Unknown
Apparent Right ascension
Unknown
Apparent Declination
Unknown
Sunlit
N/A
Visualization observer readout
Local Sidereal Time
14:49:34
Azimuth
Unknown
Elevation
Unknown
Doppler factor
Unknown
Orbital elements
Apogee altitude
511.276 km
Perigee altitude
495.453 km
Semi-major axis
6,881.502 km
Eccentricity
0.00115
Inclination
52.9698°
RAAN
304.6958°
Arg. of periapsis
138.8259°
True anomaly
221.27344°
Mean anomaly
221.3604°
Eccentric anomaly
221.31691°
Mean motion
3.80205 °/min
Orbital period
94.69 mins
BSTAR
0.00020746
Loading maneuver chart data...
Computing Atmospheric mass density...
Loading historical data...
Loading historical data...
Loading historical data...
Loading historical data...
Loading historical data...
Loading historical data...
Loading historical data...

Documentation

Showing up to 5 results
|